owner,sensor,date,latitude,longitude,vertical_datum,mass_concentration_of_oxygen_in_sea_water,qcFlag 
DISL,ioos:station:DISL:CATA:1,2016-12-01T00:00:00Z,30.3085,-88.1395,2.329,8.02,1111122 
DISL,ioos:station:DISL:CATA:1,2016-12-01T00:30:00Z,30.3085,-88.1395,2.417,7.92,1111122 
DISL,ioos:station:DISL:CATA:1,2016-12-01T01:00:00Z,30.3085,-88.1395,2.438,7.92,1111122 
DISL,ioos:station:DISL:CATA:1,2016-12-01T01:30:00Z,30.3085,-88.1395,2.467,7.9,1111122 
DISL,ioos:station:DISL:CATA:1,2016-12-01T02:00:00Z,30.3085,-88.1395,2.502,7.86,1111122 
DISL,ioos:station:DISL:CATA:1,2016-12-01T02:30:00Z,30.3085,-88.1395,2.537,7.84,1111122 
DISL,ioos:station:DISL:CATA:1,2016-12-01T03:00:00Z,30.3085,-88.1395,2.546,7.88,1111122 
DISL,ioos:station:DISL:CATA:1,2016-12-01T03:30:00Z,30.3085,-88.1395,2.55,7.76,1111122 
DISL,ioos:station:DISL:CATA:1,2016-12-01T04:00:00Z,30.3085,-88.1395,2.546,7.73,1111122 
DISL,ioos:station:DISL:CATA:1,2016-12-01T04:30:00Z,30.3085,-88.1395,2.548,7.67,1111122 
DISL,ioos:station:DISL:CATA:1,2016-12-01T05:00:00Z,30.3085,-88.1395,2.558,7.64,1111122 
DISL,ioos:station:DISL:CATA:1,2016-12-01T05:30:00Z,30.3085,-88.1395,2.543,7.66,1111122 
DISL,ioos:station:DISL:CATA:1,2016-12-01T06:00:00Z,30.3085,-88.1395,2.523,7.65,1111122 
DISL,ioos:station:DISL:CATA:1,2016-12-01T06:30:00Z,30.3085,-88.1395,2.495,7.69,1111122 
DISL,ioos:station:DISL:CATA:1,2016-12-01T07:00:00Z,30.3085,-88.1395,2.478,7.63,1111122 
DISL,ioos:station:DISL:CATA:1,2016-12-01T07:30:00Z,30.3085,-88.1395,2.451,7.54,1111122 
DISL,ioos:station:DISL:CATA:1,2016-12-01T08:00:00Z,30.3085,-88.1395,2.418,7.57,1111122 
DISL,ioos:station:DISL:CATA:1,2016-12-01T08:30:00Z,30.3085,-88.1395,2.383,7.82,1111122 
DISL,ioos:station:DISL:CATA:1,2016-12-01T09:00:00Z,30.3085,-88.1395,2.336,7.83,1111122 
DISL,ioos:station:DISL:CATA:1,2016-12-01T09:30:00Z,30.3085,-88.1395,2.287,7.8,1111122 
DISL,ioos:station:DISL:CATA:1,2016-12-01T10:00:00Z,30.3085,-88.1395,2.234,7.76,1111122 
DISL,ioos:station:DISL:CATA:1,2016-12-01T10:30:00Z,30.3085,-88.1395,2.191,7.7,1111122 
DISL,ioos:station:DISL:CATA:1,2016-12-01T11:00:00Z,30.3085,-88.1395,2.149,7.73,1111122 
DISL,ioos:station:DISL:CATA:1,2016-12-01T11:30:00Z,30.3085,-88.1395,2.103,7.7,1111122 
DISL,ioos:station:DISL:CATA:1,2016-12-01T12:00:00Z,30.3085,-88.1395,2.068,7.7,1111122 
DISL,ioos:station:DISL:CATA:1,2016-12-01T12:30:00Z,30.3085,-88.1395,2.028,7.72,1111122 
DISL,ioos:station:DISL:CATA:1,2016-12-01T13:00:00Z,30.3085,-88.1395,2.006,7.75,1111122 
DISL,ioos:station:DISL:CATA:1,2016-12-01T13:30:00Z,30.3085,-88.1395,1.993,7.76,1111122 
DISL,ioos:station:DISL:CATA:1,2016-12-01T14:00:00Z,30.3085,-88.1395,1.98,7.85,1111122 
DISL,ioos:station:DISL:CATA:1,2016-12-01T14:30:00Z,30.3085,-88.1395,1.982,7.88,1111122 
DISL,ioos:station:DISL:CATA:1,2016-12-01T15:00:00Z,30.3085,-88.1395,1.986,7.88,1111122 
DISL,ioos:station:DISL:CATA:1,2016-12-01T15:30:00Z,30.3085,-88.1395,2.003,7.95,1111122 
DISL,ioos:station:DISL:CATA:1,2016-12-01T16:00:00Z,30.3085,-88.1395,2.039,8.0,1111122 
DISL,ioos:station:DISL:CATA:1,2016-12-01T16:30:00Z,30.3085,-88.1395,2.058,7.98,1111122 
DISL,ioos:station:DISL:CATA:1,2016-12-01T17:00:00Z,30.3085,-88.1395,2.073,7.8,1111122 
DISL,ioos:station:DISL:CATA:1,2016-12-01T17:30:00Z,30.3085,-88.1395,2.084,8.2,1111122 
DISL,ioos:station:DISL:CATA:1,2016-12-01T18:00:00Z,30.3085,-88.1395,2.097,8.4,1111122 
DISL,ioos:station:DISL:CATA:1,2016-12-01T18:30:00Z,30.3085,-88.1395,2.112,8.46,1111122 
DISL,ioos:station:DISL:CATA:1,2016-12-01T19:00:00Z,30.3085,-88.1395,2.13,8.59,1111122 
DISL,ioos:station:DISL:CATA:1,2016-12-01T19:30:00Z,30.3085,-88.1395,2.149,8.77,1111122 
DISL,ioos:station:DISL:CATA:1,2016-12-01T20:00:00Z,30.3085,-88.1395,2.168,8.74,1111122 
DISL,ioos:station:DISL:CATA:1,2016-12-01T20:30:00Z,30.3085,-88.1395,2.187,8.84,1111122 
DISL,ioos:station:DISL:CATA:1,2016-12-01T21:00:00Z,30.3085,-88.1395,2.206,8.81,1111122 
DISL,ioos:station:DISL:CATA:1,2016-12-01T21:30:00Z,30.3085,-88.1395,2.219,8.84,1111122 
DISL,ioos:station:DISL:CATA:1,2016-12-01T22:00:00Z,30.3085,-88.1395,2.238,8.79,1111122 
DISL,ioos:station:DISL:CATA:1,2016-12-01T22:30:00Z,30.3085,-88.1395,2.252,8.74,1111122 
DISL,ioos:station:DISL:CATA:1,2016-12-01T23:00:00Z,30.3085,-88.1395,2.263,8.67,1111122 
DISL,ioos:station:DISL:CATA:1,2016-12-01T23:30:00Z,30.3085,-88.1395,2.277,8.59,1111122 
DISL,ioos:station:DISL:CATA:1,2016-12-02T00:00:00Z,30.3085,-88.1395,2.291,8.54,1111122 
DISL,ioos:station:DISL:CATA:1,2016-12-02T00:30:00Z,30.3085,-88.1395,2.311,8.44,1111122 
DISL,ioos:station:DISL:CATA:1,2016-12-02T01:00:00Z,30.3085,-88.1395,2.338,8.36,1111122 
DISL,ioos:station:DISL:CATA:1,2016-12-02T01:30:00Z,30.3085,-88.1395,2.357,8.39,1111122 
DISL,ioos:station:DISL:CATA:1,2016-12-02T02:00:00Z,30.3085,-88.1395,2.384,8.24,1111122 
DISL,ioos:station:DISL:CATA:1,2016-12-02T02:30:00Z,30.3085,-88.1395,2.41,8.23,1111122 
DISL,ioos:station:DISL:CATA:1,2016-12-02T03:00:00Z,30.3085,-88.1395,2.432,8.26,1111122 
DISL,ioos:station:DISL:CATA:1,2016-12-02T03:30:00Z,30.3085,-88.1395,2.447,8.16,1111122 
DISL,ioos:station:DISL:CATA:1,2016-12-02T04:00:00Z,30.3085,-88.1395,2.466,8.15,1111122 
DISL,ioos:station:DISL:CATA:1,2016-12-02T04:30:00Z,30.3085,-88.1395,2.465,8.13,1111122 
DISL,ioos:station:DISL:CATA:1,2016-12-02T05:00:00Z,30.3085,-88.1395,2.465,8.13,1111122 
DISL,ioos:station:DISL:CATA:1,2016-12-02T05:30:00Z,30.3085,-88.1395,2.453,8.02,1111122 
DISL,ioos:station:DISL:CATA:1,2016-12-02T06:00:00Z,30.3085,-88.1395,2.415,7.86,1111122 
DISL,ioos:station:DISL:CATA:1,2016-12-02T06:30:00Z,30.3085,-88.1395,2.402,8.0,1111122 
DISL,ioos:station:DISL:CATA:1,2016-12-02T07:00:00Z,30.3085,-88.1395,2.365,8.04,1111122 
DISL,ioos:station:DISL:CATA:1,2016-12-02T07:30:00Z,30.3085,-88.1395,2.342,8.23,1111122 
DISL,ioos:station:DISL:CATA:1,2016-12-02T08:00:00Z,30.3085,-88.1395,2.305,8.25,1111122 
DISL,ioos:station:DISL:CATA:1,2016-12-02T08:30:00Z,30.3085,-88.1395,2.272,8.3,1111122 
DISL,ioos:station:DISL:CATA:1,2016-12-02T09:00:00Z,30.3085,-88.1395,2.249,8.34,1111122 
DISL,ioos:station:DISL:CATA:1,2016-12-02T09:30:00Z,30.3085,-88.1395,2.213,8.47,1111122 
DISL,ioos:station:DISL:CATA:1,2016-12-02T10:00:00Z,30.3085,-88.1395,2.175,8.44,1111122 
DISL,ioos:station:DISL:CATA:1,2016-12-02T10:30:00Z,30.3085,-88.1395,2.139,8.35,1111122 
DISL,ioos:station:DISL:CATA:1,2016-12-02T11:00:00Z,30.3085,-88.1395,2.101,8.23,1111122 
DISL,ioos:station:DISL:CATA:1,2016-12-02T11:30:00Z,30.3085,-88.1395,2.045,8.07,1111122 
DISL,ioos:station:DISL:CATA:1,2016-12-02T12:00:00Z,30.3085,-88.1395,2.001,8.02,1111122 
DISL,ioos:station:DISL:CATA:1,2016-12-02T12:30:00Z,30.3085,-88.1395,1.959,8.09,1111122 
DISL,ioos:station:DISL:CATA:1,2016-12-02T13:00:00Z,30.3085,-88.1395,1.923,8.08,1111122 
DISL,ioos:station:DISL:CATA:1,2016-12-02T13:30:00Z,30.3085,-88.1395,1.896,8.11,1111122 
DISL,ioos:station:DISL:CATA:1,2016-12-02T14:00:00Z,30.3085,-88.1395,1.883,8.1,1111122 
DISL,ioos:station:DISL:CATA:1,2016-12-02T14:30:00Z,30.3085,-88.1395,1.867,8.14,1111122 
DISL,ioos:station:DISL:CATA:1,2016-12-02T15:00:00Z,30.3085,-88.1395,1.874,8.18,1111122 
DISL,ioos:station:DISL:CATA:1,2016-12-02T15:30:00Z,30.3085,-88.1395,1.885,8.18,1111122 
DISL,ioos:station:DISL:CATA:1,2016-12-02T16:00:00Z,30.3085,-88.1395,1.891,8.21,1111122 
DISL,ioos:station:DISL:CATA:1,2016-12-02T16:30:00Z,30.3085,-88.1395,1.907,8.23,1111122 
DISL,ioos:station:DISL:CATA:1,2016-12-02T17:00:00Z,30.3085,-88.1395,1.919,8.24,1111122 
DISL,ioos:station:DISL:CATA:1,2016-12-02T17:30:00Z,30.3085,-88.1395,1.933,8.25,1111122 
DISL,ioos:station:DISL:CATA:1,2016-12-02T18:00:00Z,30.3085,-88.1395,1.951,8.3,1111122 
DISL,ioos:station:DISL:CATA:1,2016-12-02T18:30:00Z,30.3085,-88.1395,1.973,8.04,1111122 
DISL,ioos:station:DISL:CATA:1,2016-12-02T19:00:00Z,30.3085,-88.1395,1.997,7.94,1111122 
DISL,ioos:station:DISL:CATA:1,2016-12-02T19:30:00Z,30.3085,-88.1395,2.023,8.09,1111122 
DISL,ioos:station:DISL:CATA:1,2016-12-02T20:00:00Z,30.3085,-88.1395,2.046,8.19,1111122 
DISL,ioos:station:DISL:CATA:1,2016-12-02T20:30:00Z,30.3085,-88.1395,2.062,8.32,1111122 
DISL,ioos:station:DISL:CATA:1,2016-12-02T21:00:00Z,30.3085,-88.1395,2.092,8.44,1111122 
DISL,ioos:station:DISL:CATA:1,2016-12-02T21:30:00Z,30.3085,-88.1395,2.109,8.52,1111122 
DISL,ioos:station:DISL:CATA:1,2016-12-02T22:00:00Z,30.3085,-88.1395,2.137,8.72,1111122 
DISL,ioos:station:DISL:CATA:1,2016-12-02T22:30:00Z,30.3085,-88.1395,2.154,8.68,1111122 
DISL,ioos:station:DISL:CATA:1,2016-12-02T23:00:00Z,30.3085,-88.1395,2.175,8.6,1111122 
DISL,ioos:station:DISL:CATA:1,2016-12-02T23:30:00Z,30.3085,-88.1395,2.197,8.54,1111122 
DISL,ioos:station:DISL:CATA:1,2016-12-03T00:00:00Z,30.3085,-88.1395,2.226,8.52,1111122 
DISL,ioos:station:DISL:CATA:1,2016-12-03T00:30:00Z,30.3085,-88.1395,2.253,8.47,1111122 
DISL,ioos:station:DISL:CATA:1,2016-12-03T01:00:00Z,30.3085,-88.1395,2.266,8.46,1111122 
DISL,ioos:station:DISL:CATA:1,2016-12-03T01:30:00Z,30.3085,-88.1395,2.292,8.42,1111122 
DISL,ioos:station:DISL:CATA:1,2016-12-03T02:00:00Z,30.3085,-88.1395,2.322,8.35,1111122 
DISL,ioos:station:DISL:CATA:1,2016-12-03T02:30:00Z,30.3085,-88.1395,2.343,8.23,1111122 
DISL,ioos:station:DISL:CATA:1,2016-12-03T03:00:00Z,30.3085,-88.1395,2.375,8.22,1111122 
DISL,ioos:station:DISL:CATA:1,2016-12-03T03:30:00Z,30.3085,-88.1395,2.405,8.24,1111122 
DISL,ioos:station:DISL:CATA:1,2016-12-03T04:00:00Z,30.3085,-88.1395,2.416,8.23,1111122 
DISL,ioos:station:DISL:CATA:1,2016-12-03T04:30:00Z,30.3085,-88.1395,2.428,8.26,1111122 
DISL,ioos:station:DISL:CATA:1,2016-12-03T05:00:00Z,30.3085,-88.1395,2.436,8.27,1111122 
DISL,ioos:station:DISL:CATA:1,2016-12-03T05:30:00Z,30.3085,-88.1395,2.428,8.45,1111122 
DISL,ioos:station:DISL:CATA:1,2016-12-03T06:00:00Z,30.3085,-88.1395,2.411,8.31,1111122 
DISL,ioos:station:DISL:CATA:1,2016-12-03T06:30:00Z,30.3085,-88.1395,2.407,8.42,1111122 
DISL,ioos:station:DISL:CATA:1,2016-12-03T07:00:00Z,30.3085,-88.1395,2.373,8.45,1111122 
DISL,ioos:station:DISL:CATA:1,2016-12-03T07:30:00Z,30.3085,-88.1395,2.34,8.78,1111122 
DISL,ioos:station:DISL:CATA:1,2016-12-03T08:00:00Z,30.3085,-88.1395,2.313,8.95,1111122 
DISL,ioos:station:DISL:CATA:1,2016-12-03T08:30:00Z,30.3085,-88.1395,2.287,8.75,1111122 
DISL,ioos:station:DISL:CATA:1,2016-12-03T09:00:00Z,30.3085,-88.1395,2.271,8.61,1111122 
DISL,ioos:station:DISL:CATA:1,2016-12-03T09:30:00Z,30.3085,-88.1395,2.257,8.49,1111122 
DISL,ioos:station:DISL:CATA:1,2016-12-03T10:00:00Z,30.3085,-88.1395,2.236,8.55,1111122 
DISL,ioos:station:DISL:CATA:1,2016-12-03T10:30:00Z,30.3085,-88.1395,2.187,8.54,1111122 
DISL,ioos:station:DISL:CATA:1,2016-12-03T11:00:00Z,30.3085,-88.1395,2.145,8.49,1111122 
DISL,ioos:station:DISL:CATA:1,2016-12-03T11:30:00Z,30.3085,-88.1395,2.103,8.47,1111122 
DISL,ioos:station:DISL:CATA:1,2016-12-03T12:00:00Z,30.3085,-88.1395,2.078,8.44,1111122 
DISL,ioos:station:DISL:CATA:1,2016-12-03T12:30:00Z,30.3085,-88.1395,2.042,8.43,1111122 
DISL,ioos:station:DISL:CATA:1,2016-12-03T13:00:00Z,30.3085,-88.1395,2.033,8.43,1111122 
DISL,ioos:station:DISL:CATA:1,2016-12-03T13:30:00Z,30.3085,-88.1395,2.025,8.43,1111122 
DISL,ioos:station:DISL:CATA:1,2016-12-03T14:00:00Z,30.3085,-88.1395,2.013,8.45,1111122 
DISL,ioos:station:DISL:CATA:1,2016-12-03T14:30:00Z,30.3085,-88.1395,1.996,8.46,1111122 
DISL,ioos:station:DISL:CATA:1,2016-12-03T15:00:00Z,30.3085,-88.1395,1.991,8.47,1111122 
DISL,ioos:station:DISL:CATA:1,2016-12-03T15:30:00Z,30.3085,-88.1395,1.972,8.46,1111122 
DISL,ioos:station:DISL:CATA:1,2016-12-03T16:00:00Z,30.3085,-88.1395,1.962,8.45,1111122 
DISL,ioos:station:DISL:CATA:1,2016-12-03T16:30:00Z,30.3085,-88.1395,1.947,8.49,1111122 
DISL,ioos:station:DISL:CATA:1,2016-12-03T17:00:00Z,30.3085,-88.1395,1.947,8.48,1111122 
DISL,ioos:station:DISL:CATA:1,2016-12-03T17:30:00Z,30.3085,-88.1395,1.944,8.54,1111122 
DISL,ioos:station:DISL:CATA:1,2016-12-03T18:00:00Z,30.3085,-88.1395,1.943,8.55,1111122 
DISL,ioos:station:DISL:CATA:1,2016-12-03T18:30:00Z,30.3085,-88.1395,1.976,8.56,1111122 
DISL,ioos:station:DISL:CATA:1,2016-12-03T19:00:00Z,30.3085,-88.1395,2.02,8.52,1111122 
DISL,ioos:station:DISL:CATA:1,2016-12-03T19:30:00Z,30.3085,-88.1395,2.067,8.56,1111122 
DISL,ioos:station:DISL:CATA:1,2016-12-03T20:00:00Z,30.3085,-88.1395,2.081,8.57,1111122 
DISL,ioos:station:DISL:CATA:1,2016-12-03T20:30:00Z,30.3085,-88.1395,2.098,8.53,1111122 
DISL,ioos:station:DISL:CATA:1,2016-12-03T21:00:00Z,30.3085,-88.1395,2.117,8.57,1111122 
DISL,ioos:station:DISL:CATA:1,2016-12-03T21:30:00Z,30.3085,-88.1395,2.133,8.48,1111122 
DISL,ioos:station:DISL:CATA:1,2016-12-03T22:00:00Z,30.3085,-88.1395,2.139,8.49,1111122 
DISL,ioos:station:DISL:CATA:1,2016-12-03T22:30:00Z,30.3085,-88.1395,2.168,8.49,1111122 
DISL,ioos:station:DISL:CATA:1,2016-12-03T23:00:00Z,30.3085,-88.1395,2.189,8.51,1111122 
DISL,ioos:station:DISL:CATA:1,2016-12-03T23:30:00Z,30.3085,-88.1395,2.195,8.47,1111122 
DISL,ioos:station:DISL:CATA:1,2016-12-04T00:00:00Z,30.3085,-88.1395,2.213,8.54,1111122 
DISL,ioos:station:DISL:CATA:1,2016-12-04T00:30:00Z,30.3085,-88.1395,2.228,8.47,1111122 
DISL,ioos:station:DISL:CATA:1,2016-12-04T01:00:00Z,30.3085,-88.1395,2.258,8.45,1111122 
DISL,ioos:station:DISL:CATA:1,2016-12-04T01:30:00Z,30.3085,-88.1395,2.306,8.48,1111122 
DISL,ioos:station:DISL:CATA:1,2016-12-04T02:00:00Z,30.3085,-88.1395,2.326,8.49,1111122 
DISL,ioos:station:DISL:CATA:1,2016-12-04T02:30:00Z,30.3085,-88.1395,2.37,8.53,1111122 
DISL,ioos:station:DISL:CATA:1,2016-12-04T03:00:00Z,30.3085,-88.1395,2.386,8.5,1111122 
DISL,ioos:station:DISL:CATA:1,2016-12-04T03:30:00Z,30.3085,-88.1395,2.395,8.53,1111122 
DISL,ioos:station:DISL:CATA:1,2016-12-04T04:00:00Z,30.3085,-88.1395,2.444,8.49,1111122 
DISL,ioos:station:DISL:CATA:1,2016-12-04T04:30:00Z,30.3085,-88.1395,2.456,8.43,1111122 
DISL,ioos:station:DISL:CATA:1,2016-12-04T05:00:00Z,30.3085,-88.1395,2.475,8.52,1111122 
DISL,ioos:station:DISL:CATA:1,2016-12-04T05:30:00Z,30.3085,-88.1395,2.483,8.47,1111122 
DISL,ioos:station:DISL:CATA:1,2016-12-04T06:00:00Z,30.3085,-88.1395,2.5,8.36,1111122 
DISL,ioos:station:DISL:CATA:1,2016-12-04T06:30:00Z,30.3085,-88.1395,2.526,8.26,1111122 
DISL,ioos:station:DISL:CATA:1,2016-12-04T07:00:00Z,30.3085,-88.1395,2.542,8.22,1111122 
DISL,ioos:station:DISL:CATA:1,2016-12-04T07:30:00Z,30.3085,-88.1395,2.563,8.08,1111122 
DISL,ioos:station:DISL:CATA:1,2016-12-04T08:00:00Z,30.3085,-88.1395,2.591,8.21,1111122 
DISL,ioos:station:DISL:CATA:1,2016-12-04T08:30:00Z,30.3085,-88.1395,2.595,8.21,1111122 
DISL,ioos:station:DISL:CATA:1,2016-12-04T09:00:00Z,30.3085,-88.1395,2.585,8.13,1111122 
DISL,ioos:station:DISL:CATA:1,2016-12-04T09:30:00Z,30.3085,-88.1395,2.573,8.1,1111122 
DISL,ioos:station:DISL:CATA:1,2016-12-04T10:00:00Z,30.3085,-88.1395,2.572,8.02,1111122 
DISL,ioos:station:DISL:CATA:1,2016-12-04T10:30:00Z,30.3085,-88.1395,2.544,8.07,1111122 
DISL,ioos:station:DISL:CATA:1,2016-12-04T11:00:00Z,30.3085,-88.1395,2.507,8.09,1111122 
DISL,ioos:station:DISL:CATA:1,2016-12-04T11:30:00Z,30.3085,-88.1395,2.456,8.15,1111122 
DISL,ioos:station:DISL:CATA:1,2016-12-04T12:00:00Z,30.3085,-88.1395,2.416,8.23,1111122 
DISL,ioos:station:DISL:CATA:1,2016-12-04T12:30:00Z,30.3085,-88.1395,2.388,8.24,1111122 
DISL,ioos:station:DISL:CATA:1,2016-12-04T13:00:00Z,30.3085,-88.1395,2.36,8.31,1111122 
DISL,ioos:station:DISL:CATA:1,2016-12-04T13:30:00Z,30.3085,-88.1395,2.397,8.3,1111122 
DISL,ioos:station:DISL:CATA:1,2016-12-04T14:00:00Z,30.3085,-88.1395,2.461,8.3,1111122 
DISL,ioos:station:DISL:CATA:1,2016-12-04T14:30:00Z,30.3085,-88.1395,2.429,8.32,1111122 
DISL,ioos:station:DISL:CATA:1,2016-12-04T15:00:00Z,30.3085,-88.1395,2.314,8.26,1111122 
DISL,ioos:station:DISL:CATA:1,2016-12-04T15:30:00Z,30.3085,-88.1395,2.261,8.14,1111122 
DISL,ioos:station:DISL:CATA:1,2016-12-04T16:00:00Z,30.3085,-88.1395,2.222,8.18,1111122 
DISL,ioos:station:DISL:CATA:1,2016-12-04T16:30:00Z,30.3085,-88.1395,2.236,8.21,1111122 
DISL,ioos:station:DISL:CATA:1,2016-12-04T17:00:00Z,30.3085,-88.1395,2.222,8.28,1111122 
DISL,ioos:station:DISL:CATA:1,2016-12-04T17:30:00Z,30.3085,-88.1395,2.186,8.34,1111122 
DISL,ioos:station:DISL:CATA:1,2016-12-04T18:00:00Z,30.3085,-88.1395,2.189,8.36,1111122 
DISL,ioos:station:DISL:CATA:1,2016-12-04T18:30:00Z,30.3085,-88.1395,2.205,8.36,1111122 
DISL,ioos:station:DISL:CATA:1,2016-12-04T19:00:00Z,30.3085,-88.1395,2.23,8.34,1111122 
DISL,ioos:station:DISL:CATA:1,2016-12-04T19:30:00Z,30.3085,-88.1395,2.267,8.39,1111122 
DISL,ioos:station:DISL:CATA:1,2016-12-04T20:00:00Z,30.3085,-88.1395,2.287,8.35,1111122 
DISL,ioos:station:DISL:CATA:1,2016-12-04T20:30:00Z,30.3085,-88.1395,2.296,8.23,1111122 
DISL,ioos:station:DISL:CATA:1,2016-12-04T21:00:00Z,30.3085,-88.1395,2.317,8.03,1111122 
DISL,ioos:station:DISL:CATA:1,2016-12-04T21:30:00Z,30.3085,-88.1395,2.326,8.42,1111122 
DISL,ioos:station:DISL:CATA:1,2016-12-04T22:00:00Z,30.3085,-88.1395,2.345,8.56,1111122 
DISL,ioos:station:DISL:CATA:1,2016-12-04T22:30:00Z,30.3085,-88.1395,2.361,8.63,1111122 
DISL,ioos:station:DISL:CATA:1,2016-12-04T23:00:00Z,30.3085,-88.1395,2.355,8.6,1111122 
DISL,ioos:station:DISL:CATA:1,2016-12-04T23:30:00Z,30.3085,-88.1395,2.374,8.66,1111122 
DISL,ioos:station:DISL:CATA:1,2016-12-05T00:00:00Z,30.3085,-88.1395,2.361,8.56,1111122 
DISL,ioos:station:DISL:CATA:1,2016-12-05T00:30:00Z,30.3085,-88.1395,2.379,8.31,1111122 
DISL,ioos:station:DISL:CATA:1,2016-12-05T01:00:00Z,30.3085,-88.1395,2.42,8.31,1111122 
DISL,ioos:station:DISL:CATA:1,2016-12-05T01:30:00Z,30.3085,-88.1395,2.387,8.01,1111122 
DISL,ioos:station:DISL:CATA:1,2016-12-05T02:00:00Z,30.3085,-88.1395,2.387,8.51,1111122 
DISL,ioos:station:DISL:CATA:1,2016-12-05T02:30:00Z,30.3085,-88.1395,2.407,8.24,1111122 
DISL,ioos:station:DISL:CATA:1,2016-12-05T03:00:00Z,30.3085,-88.1395,2.436,8.01,1111122 
DISL,ioos:station:DISL:CATA:1,2016-12-05T03:30:00Z,30.3085,-88.1395,2.456,8.01,1111122 
DISL,ioos:station:DISL:CATA:1,2016-12-05T04:00:00Z,30.3085,-88.1395,2.481,7.93,1111122 
DISL,ioos:station:DISL:CATA:1,2016-12-05T04:30:00Z,30.3085,-88.1395,2.489,8.29,1111122 
DISL,ioos:station:DISL:CATA:1,2016-12-05T05:00:00Z,30.3085,-88.1395,2.479,8.15,1111122 
DISL,ioos:station:DISL:CATA:1,2016-12-05T05:30:00Z,30.3085,-88.1395,2.483,7.78,1111122 
DISL,ioos:station:DISL:CATA:1,2016-12-05T06:00:00Z,30.3085,-88.1395,2.519,7.8,1111122 
DISL,ioos:station:DISL:CATA:1,2016-12-05T06:30:00Z,30.3085,-88.1395,2.549,7.97,1111122 
DISL,ioos:station:DISL:CATA:1,2016-12-05T07:00:00Z,30.3085,-88.1395,2.521,8.26,1111122 
DISL,ioos:station:DISL:CATA:1,2016-12-05T07:30:00Z,30.3085,-88.1395,2.565,8.06,1111122 
DISL,ioos:station:DISL:CATA:1,2016-12-05T08:00:00Z,30.3085,-88.1395,2.537,8.12,1111122 
DISL,ioos:station:DISL:CATA:1,2016-12-05T08:30:00Z,30.3085,-88.1395,2.541,7.76,1111122 
DISL,ioos:station:DISL:CATA:1,2016-12-05T09:00:00Z,30.3085,-88.1395,2.556,7.59,1111122 
DISL,ioos:station:DISL:CATA:1,2016-12-05T09:30:00Z,30.3085,-88.1395,2.576,7.48,1111122 
DISL,ioos:station:DISL:CATA:1,2016-12-05T10:00:00Z,30.3085,-88.1395,2.562,7.4,1111122 
DISL,ioos:station:DISL:CATA:1,2016-12-05T10:30:00Z,30.3085,-88.1395,2.568,7.22,1111122 
DISL,ioos:station:DISL:CATA:1,2016-12-05T11:00:00Z,30.3085,-88.1395,2.507,7.28,1111122 
DISL,ioos:station:DISL:CATA:1,2016-12-05T11:30:00Z,30.3085,-88.1395,2.468,7.54,1111122 
DISL,ioos:station:DISL:CATA:1,2016-12-05T12:00:00Z,30.3085,-88.1395,2.42,8.32,1111122 
DISL,ioos:station:DISL:CATA:1,2016-12-05T12:30:00Z,30.3085,-88.1395,2.37,8.49,1111122 
DISL,ioos:station:DISL:CATA:1,2016-12-05T13:00:00Z,30.3085,-88.1395,2.316,8.61,1111122 
DISL,ioos:station:DISL:CATA:1,2016-12-05T13:30:00Z,30.3085,-88.1395,2.259,8.54,1111122 
DISL,ioos:station:DISL:CATA:1,2016-12-05T14:00:00Z,30.3085,-88.1395,2.208,8.65,1111122 
DISL,ioos:station:DISL:CATA:1,2016-12-05T14:30:00Z,30.3085,-88.1395,2.173,8.62,1111122 
DISL,ioos:station:DISL:CATA:1,2016-12-05T15:00:00Z,30.3085,-88.1395,2.167,8.78,1111122 
DISL,ioos:station:DISL:CATA:1,2016-12-05T15:30:00Z,30.3085,-88.1395,2.156,8.83,1111122 
DISL,ioos:station:DISL:CATA:1,2016-12-05T16:00:00Z,30.3085,-88.1395,2.152,8.86,1111122 
DISL,ioos:station:DISL:CATA:1,2016-12-05T16:30:00Z,30.3085,-88.1395,2.15,8.92,1111122 
DISL,ioos:station:DISL:CATA:1,2016-12-05T17:00:00Z,30.3085,-88.1395,2.159,8.89,1111122 
DISL,ioos:station:DISL:CATA:1,2016-12-05T17:30:00Z,30.3085,-88.1395,2.191,8.9,1111122 
DISL,ioos:station:DISL:CATA:1,2016-12-05T18:00:00Z,30.3085,-88.1395,2.213,8.85,1111122 
DISL,ioos:station:DISL:CATA:1,2016-12-05T18:30:00Z,30.3085,-88.1395,2.236,8.85,1111122 
DISL,ioos:station:DISL:CATA:1,2016-12-05T19:00:00Z,30.3085,-88.1395,2.215,8.85,1111122 
DISL,ioos:station:DISL:CATA:1,2016-12-05T19:30:00Z,30.3085,-88.1395,2.26,8.95,1111122 
DISL,ioos:station:DISL:CATA:1,2016-12-05T20:00:00Z,30.3085,-88.1395,2.26,8.95,1111122 
DISL,ioos:station:DISL:CATA:1,2016-12-05T20:30:00Z,30.3085,-88.1395,2.331,8.73,1111122 
DISL,ioos:station:DISL:CATA:1,2016-12-05T21:00:00Z,30.3085,-88.1395,2.332,8.73,1111122 
DISL,ioos:station:DISL:CATA:1,2016-12-05T21:30:00Z,30.3085,-88.1395,2.364,8.71,1111122 
DISL,ioos:station:DISL:CATA:1,2016-12-05T22:00:00Z,30.3085,-88.1395,2.413,8.72,1111122 
DISL,ioos:station:DISL:CATA:1,2016-12-05T22:30:00Z,30.3085,-88.1395,2.396,8.73,1111122 
DISL,ioos:station:DISL:CATA:1,2016-12-05T23:00:00Z,30.3085,-88.1395,2.363,8.71,1111122 
DISL,ioos:station:DISL:CATA:1,2016-12-05T23:30:00Z,30.3085,-88.1395,2.351,8.53,1111122 
DISL,ioos:station:DISL:CATA:1,2016-12-06T00:00:00Z,30.3085,-88.1395,2.339,8.63,1111122 
DISL,ioos:station:DISL:CATA:1,2016-12-06T00:30:00Z,30.3085,-88.1395,2.274,8.69,1111122 
DISL,ioos:station:DISL:CATA:1,2016-12-06T01:00:00Z,30.3085,-88.1395,2.251,8.68,1111122 
DISL,ioos:station:DISL:CATA:1,2016-12-06T01:30:00Z,30.3085,-88.1395,2.281,8.65,1111122 
DISL,ioos:station:DISL:CATA:1,2016-12-06T02:00:00Z,30.3085,-88.1395,2.338,8.64,1111122 
DISL,ioos:station:DISL:CATA:1,2016-12-06T02:30:00Z,30.3085,-88.1395,2.388,8.6,1111122 
DISL,ioos:station:DISL:CATA:1,2016-12-06T03:00:00Z,30.3085,-88.1395,2.42,8.46,1111122 
DISL,ioos:station:DISL:CATA:1,2016-12-06T03:30:00Z,30.3085,-88.1395,2.466,8.54,1111122 
DISL,ioos:station:DISL:CATA:1,2016-12-06T04:00:00Z,30.3085,-88.1395,2.504,8.66,1111122 
DISL,ioos:station:DISL:CATA:1,2016-12-06T04:30:00Z,30.3085,-88.1395,2.527,8.6,1111122 
DISL,ioos:station:DISL:CATA:1,2016-12-06T05:00:00Z,30.3085,-88.1395,2.554,8.52,1111122 
DISL,ioos:station:DISL:CATA:1,2016-12-06T05:30:00Z,30.3085,-88.1395,2.593,8.4,1111122 
DISL,ioos:station:DISL:CATA:1,2016-12-06T06:00:00Z,30.3085,-88.1395,2.62,8.62,1111122 
DISL,ioos:station:DISL:CATA:1,2016-12-06T06:30:00Z,30.3085,-88.1395,2.65,8.51,1111122 
DISL,ioos:station:DISL:CATA:1,2016-12-06T07:00:00Z,30.3085,-88.1395,2.653,8.58,1111122 
DISL,ioos:station:DISL:CATA:1,2016-12-06T07:30:00Z,30.3085,-88.1395,2.668,8.46,1111122 
DISL,ioos:station:DISL:CATA:1,2016-12-06T08:00:00Z,30.3085,-88.1395,2.688,8.35,1111122 
DISL,ioos:station:DISL:CATA:1,2016-12-06T08:30:00Z,30.3085,-88.1395,2.676,8.3,1111122 
DISL,ioos:station:DISL:CATA:1,2016-12-06T09:00:00Z,30.3085,-88.1395,2.692,8.27,1111122 
DISL,ioos:station:DISL:CATA:1,2016-12-06T09:30:00Z,30.3085,-88.1395,2.664,8.18,1111122 
DISL,ioos:station:DISL:CATA:1,2016-12-06T10:00:00Z,30.3085,-88.1395,2.676,8.18,1111122 
DISL,ioos:station:DISL:CATA:1,2016-12-06T10:30:00Z,30.3085,-88.1395,2.658,8.2,1111122 
DISL,ioos:station:DISL:CATA:1,2016-12-06T11:00:00Z,30.3085,-88.1395,2.67,8.19,1111122 
DISL,ioos:station:DISL:CATA:1,2016-12-06T11:30:00Z,30.3085,-88.1395,2.627,8.15,1111122 
DISL,ioos:station:DISL:CATA:1,2016-12-06T12:00:00Z,30.3085,-88.1395,2.57,8.1,1111122 
DISL,ioos:station:DISL:CATA:1,2016-12-06T12:30:00Z,30.3085,-88.1395,2.564,8.08,1111122 
DISL,ioos:station:DISL:CATA:1,2016-12-06T13:00:00Z,30.3085,-88.1395,2.523,8.06,1111122 
DISL,ioos:station:DISL:CATA:1,2016-12-06T13:30:00Z,30.3085,-88.1395,2.475,8.08,1111122 
DISL,ioos:station:DISL:CATA:1,2016-12-06T14:00:00Z,30.3085,-88.1395,2.415,8.11,1111122 
DISL,ioos:station:DISL:CATA:1,2016-12-06T14:30:00Z,30.3085,-88.1395,2.398,8.04,1111122 
DISL,ioos:station:DISL:CATA:1,2016-12-06T15:00:00Z,30.3085,-88.1395,2.362,8.15,1111122 
DISL,ioos:station:DISL:CATA:1,2016-12-06T15:30:00Z,30.3085,-88.1395,2.311,8.43,1111122 